Location: Deurze
(52.9838°N, 6.6090°E)
Time: 18:22:41
(UTC+00:00)

Lacrosse 4 Rocket - Pass Details

Date: 11 March 2026
Orbit: 508 x 566 km, 68.0° (Epoch: 20 April)

Event Time Altitude Azimuth Distance (km) Brightness Sun altitude
Rises 21:34:36 0° 321° (NW) 2,652 5.9 -33.8°
Reaches altitude 10° 21:38:08 10° 355° (N) 1,776 4.5 -34.1°
Enters shadow 21:38:19 10° 358° (N) 1,753 4.4 -34.2°
